Other Public Products
Issued by NWS Grand Forks, ND

Home | Current Version | Previous Version | Graphics & Text | Print | Product List | Glossary On
Versions: 1 2 3 4 5 6 7 8 9 10 11 12 13 14 15 16 17 18 19 20 21 22 23 24 25 26 27 28 29 30 31 32 33 34 35 36 37 38 39 40 41 42 43 44 45 46 47 48 49 50
000
FPUS83 KFGF 240031
OPUFGF
PRAIRIE TO PINES WEATHER ROUNDUP
NATIONAL WEATHER SERVICE EASTERN NORTH DAKOTA/GRAND FORKS ND
600 PM CST SUN NOV 23 2014

 **SATELLITE DATA USED TO AUGMENT SKY COVER AT AUTOMATED STATIONS**
 *****  WEATHER ACROSS EASTERN NORTH DAKOTA  *****

CITY           SKY/WX    TMP DP  RH WIND       PRES   REMARKS
GRAND FORKS    LGT SNOW  21  19  93 NW16      29.55R FOG     WCI   7
6HR MIN TEMP:  21; 6HR MAX TEMP:  43; 6HR PCP: TRACE;

GRAND FORKS AF FRZ RAIN  19  18  93 N18       29.57R WCI   4
GRAND CITY NWS   N/A     19 N/A N/A N18         N/A  WCI   4
BUXTON           N/A     24  23  98 NW20        N/A  WCI   9
DEVILS LAKE    CLOUDY    16   3  57 NW23G30   29.59R WCI  -2
6HR MIN TEMP:  16; 6HR MAX TEMP:  30;

FARGO          CLOUDY    31  21  66 W14       29.50R WCI  21
6HR MIN TEMP:  31; 6HR MAX TEMP:  45; 6HR PCP: TRACE;

WAHPETON ARPT  CLOUDY    30  23  74 NW21G26   29.52R WCI  17
$$

 *****  WEATHER ACROSS CENTRAL AND WESTERN NORTH DAKOTA  *****

CITY           SKY/WX    TMP DP  RH WIND       PRES   REMARKS
JAMESTOWN      CLOUDY    20  13  74 NW22G30   29.59R WCI   3
6HR MIN TEMP:  20; 6HR MAX TEMP:  32; 6HR PCP: TRACE;

BISMARCK       CLOUDY    22  14  71 NW21G30   29.68S WCI   6
6HR MIN TEMP:  21; 6HR MAX TEMP:  27; 6HR PCP: TRACE;

MINOT          FLURRIES  17  10  74 NW20G30   29.69R WCI   1
6HR MIN TEMP:  16; 6HR MAX TEMP:  21; 6HR PCP: TRACE;

MINOT AFB      MIX PCPN  18  12  79 NW20G26   29.69F WCI   1
6HR MIN TEMP:  16; 6HR MAX TEMP:  21; 6HR PCP: TRACE;

GARRISON         N/A     19  12  74 NW24      29.69R WCI   2
6HR MIN TEMP:  18; 6HR MAX TEMP:  22;

WILLISTON      CLOUDY    20  13  74 NW16G23   29.80R WCI   6
6HR MIN TEMP:  18; 6HR MAX TEMP:  22; 6HR PCP: TRACE;

DICKINSON      FLURRIES  23  16  74 NW25G35   29.70R WCI   7
6HR MIN TEMP:  23; 6HR MAX TEMP:  25; 6HR PCP: TRACE;

HETTINGER      CLOUDY    24  16  71 NW25G33   29.72R WCI   8
6HR MIN TEMP:  23; 6HR MAX TEMP:  28;

$$

 *****  OTHER OBSERVATIONS NORTHEAST NORTH DAKOTA  *****

CITY           SKY/WX    TMP DP  RH WIND       PRES   REMARKS
WALHALLA       FLURRIES  16  16 100 NW20G26   29.61R WCI  -1
LANGDON        LGT SNOW  14   9  79 N5        29.57R WCI   6
CAVALIER       LGT SNOW  18  14  86 N26G33    29.59R WCI  -1
GRAFTON        CLOUDY    18  16  93 NW21G30   29.57S FOG     WCI   1
CANDO          FLURRIES  14  10  85 NW24G30   29.64R WCI  -5
FORT TOTTEN      N/A     17  13  85 NW12      29.95  WCI   4
ROLLA          FLURRIES  10   9  92 N23G29    29.63R WCI -10
RUGBY          CLOUDY    14   9  79 NW21G31   29.65R WCI  -4
 ***** THE ABOVE OBSERVATIONS ARE NON NWS ARE NOT QUALITY
        CONTROLLED AND MAY MIS-REPORT RAIN FOR SNOW...
$$

 *****  OTHER OBSERVATIONS SOUTHEAST NORTH DAKOTA *****

CITY           SKY/WX    TMP DP  RH WIND       PRES   REMARKS
COOPERSTOWN    NOT AVBL
VALLEY CITY    FLURRIES  21  19  93 NW25G33   29.56R WCI   4
OAKES            N/A     23  18  80 NW29G36   29.56R WCI   6
GWINNER        CLOUDY    27  21  80 NW28G33   29.56R WCI  11
SHEYENNE NWR     N/A     26  20  77 NW16      29.95  WCI  14
BUFFALO        NOT AVBL
WYNDMERE         N/A     27  21  80 NW17        N/A  WCI  14
 ***** THE ABOVE OBSERVATIONS ARE NON NWS ARE NOT QUALITY
       CONTROLLED AND MAY MIS-REPORT RAIN FOR SNOW...
$$

  *****  WEATHER ACROSS NORTHERN MINNESOTA  *****

CITY           SKY/WX    TMP DP  RH WIND       PRES   REMARKS
FLAG ISLAND    DRIZZLE   34  32  93 NW3       29.40S
WARROAD        CLOUDY    30  27  86 W8        29.43S FOG     WCI  23
ROSEAU         CLOUDY    27  23  86 W9G17     29.44S FOG     WCI  17
HALLOCK        CLOUDY    19  18  93 NW21G28   29.54R FOG     WCI   3
THF RVR FALLS  CLOUDY    21  19  93 NW20      29.49R WCI   6
6HR MIN TEMP:  21; 6HR MAX TEMP:  39;

HALSTAD          N/A     25  21  86 N18         N/A  WCI  11
FOSSTON        CLOUDY    25  23  93 NW15      29.47R FOG     WCI  12
BAUDETTE       CLOUDY    33  31  92 NW10G17   29.39S WCI  25
6HR MIN TEMP:  34; 6HR MAX TEMP:  35; 6HR PCP:  0.02;

WASKISH        CLOUDY    34  34 100 CALM      29.39S FOG
CROOKSTON      CLOUDY    21  19  93 N18G26    29.54R WCI   6
$$
  *****  WEATHER ACROSS CENTRAL AND WEST MINNESOTA  *****

CITY           SKY/WX    TMP DP  RH WIND       PRES   REMARKS
BEMIDJI        CLOUDY    32  32  97 W12       29.41R FOG     WCI  23
PARK RAPIDS    CLOUDY    33  27  78 W13       29.41R WCI  24
6HR MIN TEMP:  33; 6HR MAX TEMP:  41;

WADENA         CLOUDY    30  25  80 NW9       29.44R WCI  22
DETROIT LAKES  MOCLDY    32  27  80 W8        29.47R WCI  25
MOORHEAD       CLOUDY    30  25  80 W16       29.51R WCI  19
FERGUS FALLS   CLOUDY    28  21  74 NW16      29.53R WCI  17
ELBOW LAKE       N/A     30  25  81 NW16G22   29.49R WCI  19
MORRIS MN        N/A     32  27  80 NW18G25   29.50R WCI  20
STAPLES        CLOUDY    34  27  75 W16       29.42R WCI  23
WHEATON        CLOUDY    27  21  80 W21G26    29.55R WCI  13
$$
  *****  WEATHER ELSEWHERE ACROSS MINNESOTA  *****

CITY           SKY/WX    TMP DP  RH WIND       PRES   REMARKS
DULUTH         CLOUDY    37  34  89 NW8       29.35S FOG
6HR MIN TEMP:  37; 6HR MAX TEMP:  40; 6HR PCP: TRACE;

INTRNTL FALLS  CLOUDY    34  31  88 CALM      29.38S
6HR MIN TEMP:  34; 6HR MAX TEMP:  36;

ELY            CLOUDY    34  34 100 NW3       29.37R FOG
CLOQUET        LGT RAIN  37  36  93 NW7       29.35F
BRAINERD       CLOUDY    37  33  85 NW6       29.40S
6HR MIN TEMP:  35; 6HR MAX TEMP:  39; 6HR PCP: TRACE;

HIBBING        CLOUDY    35  32  88 CALM      29.37S FOG
6HR MIN TEMP:  35; 6HR MAX TEMP:  38;

ALEXANDRIA     CLOUDY    33  24  69 NW18G29   29.46R WCI  22
6HR MIN TEMP:  33; 6HR MAX TEMP:  38;

SAINT CLOUD    CLOUDY    38  34  85 W9        29.41R
6HR MIN TEMP:  37; 6HR MAX TEMP:  40; 6HR PCP:  0.07;

MINNEAPOLIS    CLOUDY    39  36  89 NW8       29.40R
6HR MIN TEMP:  39; 6HR MAX TEMP:  47;

$$

  *****  WEATHER ACROSS SOUTH DAKOTA  *****

CITY           SKY/WX    TMP DP  RH WIND       PRES   REMARKS
SIOUX FALLS    CLOUDY    34  26  72 NW15      29.53S WCI  24
6HR MIN TEMP:  34; 6HR MAX TEMP:  44;

BROOKINGS      NOT AVBL
WATERTOWN      CLOUDY    28  21  75 NW24      29.53R WCI  14
6HR MIN TEMP:  28; 6HR MAX TEMP:  38;

HURON          CLOUDY    30  21  69 NW23G36   29.61R WCI  17
6HR MIN TEMP:  30; 6HR MAX TEMP:  42;

SISSETON         N/A     28  22  78 N25       29.53R WCI  13
ABERDEEN       CLOUDY    25  16  68 NW25G37   29.62R WCI   9
6HR MIN TEMP:  27; 6HR MAX TEMP:  41;

MITCHELL       NOT AVBL
PIERRE         MOCLDY    32  21  64 NW24G36   29.66R WCI  19
6HR MIN TEMP:  31; 6HR MAX TEMP:  41;

MOBRIDGE       CLOUDY    26  16  65 N22G33    29.65R WCI  12
RAPID CITY     PTCLDY    34  20  56 NW23G32   29.72R WCI  22
6HR MIN TEMP:  34; 6HR MAX TEMP:  43;

$$

  *****  SOME WEATHER IN NEARBY STATES *****

CITY           SKY/WX    TMP DP  RH WIND       PRES   REMARKS
GLASGOW MT     CLEAR     20  15  81 NW6       29.83S WCI  12
6HR MIN TEMP:  20; 6HR MAX TEMP:  28; 6HR PCP: TRACE;

GREAT FALLS MT CLOUDY    38  21  50 SW17      29.83R
6HR MIN TEMP:  37; 6HR MAX TEMP:  43;

CHEYENNE WY    PTCLDY    27  14  58 NW14G25   29.84R WCI  16
6HR MIN TEMP:  27; 6HR MAX TEMP:  36;

SCOTTSBLUFF NE MOCLDY    35  18  49 N13       29.83R
6HR MIN TEMP:  35; 6HR MAX TEMP:  45;

OMAHA NE       CLOUDY    44  33  65 NW17G28   29.53R
6HR MIN TEMP:  43; 6HR MAX TEMP:  49; 6HR PCP: TRACE;

DES MOINES IA  DRIZZLE   46  41  82 NW22G28   29.38R
6HR MIN TEMP:  46; 6HR MAX TEMP:  54; 6HR PCP:  0.04;

DAVENPORT IA   LGT RAIN  50  48  93 SE6       29.28F FOG
6HR MIN TEMP:  50; 6HR MAX TEMP:  52; 6HR PCP:  0.37;

CHICAGO IL     LGT RAIN  50  49  96 SE8       29.37F FOG
6HR MIN TEMP:  50; 6HR MAX TEMP:  52; 6HR PCP:  0.21;

EAU CLAIRE WI  CLOUDY    47  46  97 CALM      29.33F FOG
6HR MIN TEMP:  47; 6HR MAX TEMP:  50;

LA CROSSE WI   LGT RAIN  48  47  96 CALM      29.33F VSB 1/2
6HR MIN TEMP:  48; 6HR MAX TEMP:  51; 6HR PCP:  0.17;

$$

  *****  SOME NATIONAL WEATHER *****

CITY           SKY/WX    TMP DP  RH WIND       PRES   REMARKS
LA GUARDIA NY  MOCLDY    51  35  54 S7        30.13S


USA.gov is the U.S. government's official web portal to all federal, state and local government web resources and services.